Total_Precipitation_Accumulation
2.49 2.64 2.50 2.39 2.10 2.22 2.48 2.57 2.32 2.52 2.51 2.47 2.39 2.36 2.35 2.07 1.91 1.87 1.92 2.08 2.04 2.00 2.19 2.26 2.15 2.10 2.05 1.87 1.69 1.45 1.27 1.17 1.05 0.92 0.82 0.77 0.71 0.62 0.56 0.44 0.38 0.31 0.28
2.21 2.28 2.19 2.19 2.07 2.10 2.27 2.27 2.25 2.54 2.66 2.59 2.25 2.08 2.06 2.07 2.00 1.87 2.02 2.13 2.16 1.97 2.08 2.38 2.50 2.46 2.49 2.32 2.06 1.81 1.56 1.37 1.13 0.94 0.84 0.81 0.74 0.69 0.72 0.72 0.73 0.44 0.32
1.97 2.05 2.06 2.01 2.04 1.96 1.98 1.97 2.03 2.24 2.26 2.22 2.04 1.88 1.89 1.94 2.00 1.99 1.92 2.00 2.08 2.13 2.12 2.27 2.48 2.54 2.72 2.74 2.58 2.22 1.91 1.61 1.30 0.99 0.82 0.78 0.74 0.65 0.64 0.70 0.73 0.53 0.38
1.72 1.83 1.74 1.72 1.71 1.65 1.65 1.84 1.90 2.06 2.22 2.26 2.21 1.97 2.00 2.08 1.94 2.02 2.03 1.99 2.26 2.10 2.37 2.51 2.49 2.45 2.75 3.06 3.17 2.95 2.50 1.95 1.54 1.23 0.99 0.86 0.81 0.73 0.66 0.63 0.62 0.58 0.46
1.59 1.68 1.71 1.73 1.47 1.51 1.56 1.50 1.79 1.96 2.21 2.24 1.89 1.91 1.79 1.81 1.83 1.71 1.94 1.85 2.02 2.17 2.39 2.44 2.54 2.45 2.75 3.37 3.85 3.97 3.47 2.70 2.08 1.72 1.54 1.36 1.18 0.95 0.79 0.75 0.68 0.64 0.59
1.59 1.60 1.52 1.46 1.31 1.47 1.66 1.78 2.15 2.08 2.01 2.00 1.66 1.87 1.70 1.49 1.58 1.69 1.69 1.81 1.89 1.74 2.02 2.35 2.60 2.18 2.51 3.16 3.65 4.03 4.15 3.77 3.04 2.41 2.12 1.92 1.73 1.34 0.95 0.82 0.78 0.73 0.67
1.61 1.67 1.59 1.68 1.43 1.46 1.51 1.52 1.72 1.83 1.74 1.74 2.07 2.18 1.79 1.46 1.50 1.52 1.52 1.78 1.86 1.84 2.13 2.52 2.65 2.59 2.26 2.19 2.35 2.93 3.71 4.16 3.95 3.30 2.82 2.44 2.20 1.78 1.30 1.02 0.88 0.81 0.77
1.52 1.46 1.68 1.58 1.49 1.59 1.54 1.52 1.68 1.79 1.72 1.77 1.98 2.22 2.00 2.00 1.77 1.32 1.55 1.67 1.73 1.96 2.08 2.19 2.49 2.75 2.43 2.49 1.84 1.93 2.72 3.42 4.06 4.06 3.48 2.80 2.46 2.17 1.77 1.44 1.17 0.99 0.92
1.35 1.48 1.52 1.59 1.64 1.38 1.55 1.63 1.57 1.62 1.70 1.65 1.66 1.97 2.03 2.06 1.82 1.43 1.39 1.45 1.64 1.92 1.99 2.11 1.99 2.20 2.39 2.68 2.47 1.90 2.04 2.33 3.20 4.06 4.01 3.30 2.68 2.22 1.99 1.85 1.66 1.39 1.21
1.34 1.31 1.38 1.61 1.69 1.46 1.64 1.30 1.39 1.61 1.70 1.57 1.58 1.52 1.55 1.72 1.86 1.82 1.56 1.43 1.52 1.64 1.74 1.84 1.98 2.13 2.24 2.51 2.58 1.88 1.45 1.61 2.31 3.33 3.93 3.73 3.14 2.51 2.19 2.24 2.47 2.40 1.96
1.64 1.39 1.40 1.59 1.71 1.64 1.65 1.52 1.74 1.54 1.44 1.43 1.48 1.54 1.57 1.52 1.42 1.67 1.77 1.68 1.58 1.39 1.41 1.52 1.64 1.74 1.81 2.10 2.39 1.79 1.37 1.44 1.68 2.25 2.80 3.17 3.16 2.93 2.71 2.78 3.26 3.60 3.41
1.68 1.60 1.58 1.77 1.77 1.71 1.70 1.63 1.67 1.58 1.55 1.55 1.46 1.42 1.66 1.65 1.52 1.65 1.56 1.56 1.54 1.25 1.23 1.34 1.40 1.47 1.60 1.82 1.78 1.60 1.62 1.70 1.61 1.62 1.75 2.03 2.39 2.64 2.86 3.07 3.37 3.81 4.02
1.49 1.60 1.69 1.88 1.79 1.74 1.66 1.69 1.68 1.68 1.72 1.75 1.62 1.44 1.43 1.52 1.55 1.55 1.54 1.37 1.35 1.26 1.30 1.24 1.25 1.41 1.54 1.95 2.03 1.80 1.72 1.87 1.64 1.46 1.38 1.40 1.57 1.84 2.12 2.43 2.88 3.35 3.76
1.43 1.57 1.67 1.62 1.60 1.61 1.51 1.68 1.58 1.54 1.60 1.65 1.57 1.79 1.69 1.46 1.56 1.59 1.67 1.81 1.73 1.62 1.60 1.55 1.59 1.72 1.89 2.05 2.21 1.99 1.70 1.60 1.37 1.27 1.23 1.21 1.27 1.37 1.53 1.67 1.89 2.21 2.48
1.39 1.43 1.41 1.42 1.47 1.49 1.59 1.73 1.65 1.59 1.65 1.55 1.55 1.87 1.78 1.51 1.49 1.55 1.63 1.86 2.14 1.95 1.79 1.84 1.96 2.07 2.07 2.07 2.10 1.92 1.73 1.59 1.35 1.20 1.15 1.10 1.10 1.11 1.16 1.22 1.30 1.45 1.60
1.38 1.43 1.41 1.42 1.43 1.37 1.44 1.61 1.54 1.61 1.69 1.67 1.69 1.75 1.75 1.65 1.63 1.67 1.73 1.85 2.08 2.09 1.92 1.86 2.11 2.19 2.05 1.88 2.07 2.01 1.80 1.68 1.39 1.20 1.08 1.06 1.07 1.09 1.10 1.10 1.10 1.16 1.22
1.42 1.45 1.48 1.51 1.48 1.44 1.48 1.56 1.48 1.59 1.67 1.77 1.77 1.71 1.70 1.86 1.89 1.76 1.81 1.85 2.03 2.22 2.16 2.04 2.18 2.19 2.08 1.88 1.86 1.85 1.77 1.71 1.50 1.42 1.24 1.15 1.10 1.08 1.07 1.09 1.14 1.15 1.13
1.53 1.52 1.55 1.61 1.52 1.53 1.58 1.49 1.49 1.57 1.65 1.69 1.77 1.93 1.93 1.98 1.94 1.84 1.91 1.93 2.07 2.32 2.33 2.21 2.18 2.18 2.11 2.02 1.92 1.75 1.56 1.51 1.50 1.61 1.43 1.28 1.21 1.18 1.13 1.07 1.04 1.01 0.99
1.62 1.59 1.53 1.54 1.60 1.68 1.66 1.51 1.46 1.45 1.41 1.39 1.53 1.80 2.06 2.31 2.20 2.04 1.97 1.95 2.02 2.13 2.33 2.21 2.14 2.28 2.24 2.12 1.98 1.73 1.55 1.49 1.30 1.37 1.41 1.30 1.16 1.07 1.01 0.97 0.95 0.92 0.87
1.53 1.60 1.62 1.59 1.57 1.57 1.53 1.51 1.53 1.49 1.43 1.34 1.38 1.49 1.63 1.86 2.05 2.19 2.03 1.89 1.94 2.07 2.23 2.26 2.33 2.58 2.64 2.47 2.18 1.90 1.76 1.63 1.46 1.25 1.27 1.22 1.13 1.03 1.00 0.96 0.93 0.91 0.90
1.60 1.74 1.79 1.74 1.68 1.64 1.53 1.62 1.72 1.59 1.58 1.50 1.47 1.45 1.36 1.47 1.64 1.80 1.80 1.98 2.05 2.04 2.17 2.27 2.48 2.91 2.94 2.68 2.22 1.97 1.89 1.84 1.65 1.42 1.30 1.13 1.02 0.93 0.94 0.99 0.97 0.92 0.87
2.03 2.06 1.96 1.89 1.83 1.65 1.75 1.75 1.73 1.72 1.77 1.73 1.67 1.61 1.48 1.39 1.42 1.50 1.56 1.70 1.88 1.95 2.03 2.16 2.35 2.65 2.77 2.64 2.36 2.11 1.90 1.78 1.64 1.48 1.38 1.30 1.14 1.06 0.96 0.89 0.98 0.96 0.93
2.15 2.19 2.24 2.17 2.08 2.11 2.06 1.76 1.70 1.69 1.77 1.80 1.86 1.88 1.58 1.34 1.45 1.42 1.51 1.53 1.51 1.61 1.72 1.87 2.08 2.27 2.59 2.69 2.56 2.17 1.99 1.83 1.59 1.47 1.42 1.35 1.27 1.14 1.00 0.94 1.00 0.88 0.88
2.08 2.06 2.02 1.94 1.92 1.90 1.87 1.62 1.52 1.43 1.55 1.61 1.61 1.62 1.60 1.47 1.37 1.39 1.40 1.33 1.27 1.27 1.34 1.39 1.52 1.79 2.11 2.49 2.68 2.45 2.27 2.06 1.81 1.58 1.36 1.31 1.27 1.15 1.01 0.92 0.98 0.86 0.76
1.97 1.87 1.78 1.74 1.72 1.75 1.74 1.56 1.44 1.32 1.36 1.38 1.37 1.40 1.44 1.36 1.35 1.23 1.17 1.18 1.15 1.10 1.08 1.11 1.16 1.33 1.60 1.93 2.29 2.44 2.18 1.85 1.68 1.48 1.34 1.22 1.13 1.16 1.14 0.99 0.95 0.97 0.81
2.06 1.98 1.89 1.86 1.83 1.87 1.95 1.71 1.55 1.42 1.47 1.49 1.55 1.53 1.46 1.32 1.28 1.12 1.03 1.07 1.02 0.95 0.99 0.97 0.93 0.97 1.09 1.37 1.76 1.92 2.01 1.80 1.56 1.42 1.15 1.08 1.04 1.05 1.10 0.95 0.79 0.78 0.77